Wind_Speed
16 16 16 16 15 15 14 14 14 14 13 13 12 12 12 12 11 10 10 10 10 9 9 9 8 8 8 8 7 8 8 8 7 7 6 6 6 5 5 4 4 4 4
18 18 17 17 16 16 16 15 15 15 15 14 13 13 13 13 13 12 12 11 11 11 10 10 10 9 9 9 9 9 9 9 8 8 7 7 7 6 6 6 5 5 5
19 19 19 18 18 17 17 16 16 16 16 15 15 15 14 14 13 13 12 11 11 11 11 11 11 10 10 10 10 9 9 9 9 8 8 7 7 7 7 7 7 6 6
20 20 20 19 19 18 18 17 17 17 17 17 16 16 15 15 15 14 14 13 12 12 11 11 11 11 11 11 10 10 10 10 9 9 8 8 8 7 8 8 8 7 7
21 21 21 20 20 20 20 19 19 19 18 18 18 17 17 17 16 15 15 14 14 13 13 12 12 12 11 11 11 11 11 11 10 9 9 9 9 9 9 9 8 8 8
23 23 22 22 22 22 21 21 20 20 20 20 19 19 18 18 17 16 15 15 15 15 14 14 13 13 12 12 12 12 12 11 11 11 11 10 10 10 10 9 9 9 9
25 24 24 23 23 23 23 23 22 22 21 21 21 20 20 19 19 18 17 17 16 16 15 15 15 14 14 13 13 13 13 12 12 12 12 12 12 11 11 10 10 10 10
27 26 26 25 25 25 24 24 23 23 23 22 22 22 21 21 20 20 19 19 18 18 17 16 16 15 15 14 14 13 13 13 13 13 13 13 13 13 12 12 12 12 12
29 29 28 28 27 27 26 25 25 24 24 23 23 23 22 22 22 21 21 20 19 19 18 18 17 17 16 16 15 15 15 15 15 15 15 14 14 14 14 14 14 14 14
31 30 30 29 29 28 28 27 27 26 25 25 24 24 24 24 23 23 22 22 21 21 20 19 19 18 18 17 17 17 16 16 16 17 16 16 16 15 15 15 14 15 15
32 32 32 31 31 30 30 29 29 28 27 27 25 25 25 25 25 24 23 24 23 23 22 21 20 20 19 19 19 18 17 18 18 18 18 18 17 17 17 16 16 16 16
32 33 33 33 33 32 31 31 30 30 29 28 27 27 26 26 26 25 25 25 25 25 24 23 22 21 20 20 20 19 18 19 19 19 19 19 19 19 18 18 18 18 18
34 33 33 33 34 34 33 32 32 31 30 30 29 29 28 27 27 27 26 26 26 26 25 24 24 23 22 22 21 21 20 21 20 20 20 20 20 20 20 20 20 20 20
35 35 34 34 34 34 34 34 33 32 32 31 30 30 29 28 28 28 27 27 27 26 26 25 25 25 24 23 23 23 22 23 22 22 22 22 21 22 22 21 22 22 22
36 35 36 35 35 35 35 35 34 34 33 33 32 32 31 30 29 28 29 29 28 28 27 26 26 26 26 25 25 25 25 24 24 24 23 23 23 23 23 23 23 22 23
36 36 36 36 36 36 36 36 35 35 35 34 34 33 32 32 31 30 30 29 29 29 28 28 27 28 28 27 27 27 27 26 25 25 25 25 25 25 24 24 24 24 24
37 37 36 37 37 37 37 37 37 36 37 36 36 35 33 33 32 32 31 31 31 30 30 30 29 29 29 29 29 29 28 27 27 27 27 26 26 27 27 26 26 25 25
38 37 37 37 38 38 38 38 38 38 38 38 37 36 35 35 34 34 34 33 33 33 32 32 31 30 30 30 30 30 29 29 29 28 28 28 28 28 28 28 27 26 26
39 38 38 38 39 39 40 39 39 39 39 38 38 38 37 37 36 36 35 35 34 34 34 34 33 32 32 32 31 30 30 31 30 30 30 30 30 30 30 29 29 28 28
39 39 39 39 40 40 41 41 40 40 40 39 39 39 39 39 38 38 37 37 36 36 35 35 35 35 34 34 33 32 32 31 31 31 31 31 31 31 31 31 31 30 30
40 39 38 38 39 40 41 42 41 41 41 40 40 40 40 41 40 39 39 39 39 38 38 36 36 36 36 35 35 34 34 33 32 32 33 33 33 33 33 33 32 32 32
40 39 39 39 40 41 43 42 42 41 42 42 42 41 41 42 42 42 41 41 40 40 39 38 38 38 37 37 37 36 36 35 35 35 35 35 35 35 35 34 34 34 34
40 40 40 40 41 41 41 41 41 42 43 43 43 43 43 43 44 43 43 42 42 42 41 40 40 39 39 39 38 38 37 37 36 36 36 36 36 36 36 36 36 36 35
40 41 41 40 40 42 43 42 42 43 43 44 44 44 44 45 45 45 45 45 43 42 42 42 41 41 41 40 39 39 39 38 38 37 37 37 37 37 37 37 38 37 38
39 40 41 40 41 41 43 43 43 44 44 45 45 45 45 46 46 47 47 46 45 44 43 43 42 42 42 41 41 40 40 40 40 40 39 38 38 38 38 38 39 39 39
38 40 40 40 41 43 44 45 45 45 44 44 45 46 46 46 46 47 48 47 46 46 45 45 44 43 43 43 43 42 42 41 41 41 41 40 40 40 40 40 40 40 41
Wind_Direction
244 244 244 243 243 243 242 241 242 243 244 244 241 240 241 243 245 247 251 252 252 255 258 259 261 260 262 265 263 265 268 271 271 271 271 265 267 271 275 272 266 267 262
245 245 245 245 244 244 244 243 243 243 244 245 243 241 242 243 245 247 251 253 253 254 256 258 259 257 259 261 263 265 267 266 265 266 268 264 264 268 271 268 270 269 268
245 245 246 246 245 245 245 244 244 244 245 245 245 243 243 244 245 247 251 252 253 254 254 256 258 259 258 259 262 263 265 264 265 263 264 263 265 264 266 266 267 266 270
244 244 245 245 245 245 244 244 244 244 245 245 245 244 243 244 247 247 248 251 252 254 254 253 256 258 257 257 257 259 262 263 262 260 260 262 264 264 265 263 264 266 268
242 243 243 245 245 245 245 244 244 245 245 245 245 244 243 244 246 248 249 250 251 252 252 253 254 257 258 257 257 257 259 258 258 257 258 261 263 262 262 262 261 263 265
242 242 242 244 245 245 245 245 245 246 246 245 245 244 243 243 243 246 247 247 250 252 252 253 253 255 257 258 258 256 257 255 255 256 256 258 261 262 262 261 261 261 263
244 243 243 243 244 244 245 245 245 246 246 246 245 245 244 244 243 244 246 248 250 252 252 254 255 255 256 257 257 256 253 253 252 253 256 257 257 259 262 262 260 261 260
245 244 243 243 244 244 244 245 245 245 245 245 245 245 245 243 243 243 247 248 249 250 252 253 256 254 255 257 257 255 253 252 251 252 254 257 257 258 261 263 262 264 265
244 244 244 244 244 244 245 245 245 245 244 244 243 243 244 243 243 243 245 247 250 250 250 251 252 254 254 255 255 253 252 251 252 250 252 257 258 259 262 264 264 266 267
245 245 245 245 245 245 245 245 245 245 244 243 243 243 243 243 244 245 246 248 249 250 251 251 251 254 254 254 253 252 252 251 252 250 252 257 258 259 263 265 266 267 268
246 246 246 246 245 245 244 244 244 244 244 244 243 243 243 242 244 246 247 248 249 250 252 252 252 253 254 253 251 252 252 252 250 250 254 258 258 259 263 265 266 267 269
247 247 247 246 245 244 244 244 244 244 244 243 243 243 243 242 243 244 246 247 248 250 251 251 252 252 252 252 252 252 253 253 249 251 255 258 258 259 262 264 265 267 270
248 248 247 246 244 244 244 244 245 244 243 243 242 243 243 244 244 244 244 245 247 248 251 250 249 251 252 251 252 253 254 253 252 254 256 258 258 260 262 264 265 266 269
247 246 245 245 244 243 244 245 245 244 243 242 242 242 243 244 245 243 242 244 246 248 250 246 247 250 251 253 254 254 255 254 254 255 256 257 257 258 261 264 265 266 268
247 246 245 245 244 242 242 243 244 243 242 241 241 241 242 244 244 244 244 244 247 248 248 247 246 249 251 252 253 254 253 253 254 255 256 258 258 258 261 264 265 265 268
247 246 247 246 244 243 242 243 243 242 241 241 241 241 242 242 243 244 245 247 248 249 249 249 247 247 249 251 253 253 254 254 255 257 258 258 258 260 261 263 264 267 268
247 247 246 245 244 243 243 243 242 242 241 241 241 241 241 242 243 243 244 247 248 248 249 250 250 250 249 251 252 254 255 256 256 258 258 258 260 260 261 262 265 267 269
247 247 246 245 244 244 243 244 243 242 241 241 241 241 242 243 244 245 245 247 248 249 249 250 251 253 252 252 254 255 256 256 257 258 258 259 260 261 262 263 265 267 269
246 246 245 245 245 244 244 244 243 242 241 241 242 241 242 243 244 246 247 248 249 250 250 250 250 252 253 254 256 258 258 258 258 259 260 261 262 263 264 265 265 267 269
246 245 245 246 245 244 244 243 243 242 242 242 242 242 244 244 245 245 246 247 248 249 250 251 252 253 255 256 258 259 260 260 260 261 262 263 264 265 265 266 267 268 270
246 246 247 246 246 244 244 244 243 242 242 242 242 243 244 244 245 246 246 248 248 249 251 253 254 255 256 258 259 260 260 261 262 262 263 264 264 265 267 267 268 270 271
247 247 247 247 247 246 244 243 243 242 242 242 243 243 245 245 246 246 247 248 249 250 251 253 254 254 255 257 259 260 261 261 262 263 264 264 264 265 266 267 268 269 271
247 247 247 247 246 245 243 243 242 242 243 243 243 244 245 246 246 246 247 247 248 249 251 252 253 254 256 257 258 259 260 261 262 263 264 264 264 265 266 266 267 268 270
247 247 246 247 246 244 243 242 242 243 243 244 245 245 245 245 247 246 246 247 249 249 250 252 252 254 255 257 258 259 260 261 262 263 264 265 265 265 265 266 267 268 269
247 247 246 246 245 243 242 242 242 243 243 244 246 247 246 246 247 247 248 248 248 249 250 251 253 254 255 256 257 259 259 260 262 263 263 264 265 266 266 266 267 268 269
247 246 246 246 245 244 244 242 242 243 244 245 247 247 247 247 248 248 248 248 248 249 249 251 252 253 255 255 257 258 260 261 262 263 264 264 265 266 266 267 268 268 269
Height
5819 5820 5821 5822 5823 5825 5826 5827 5829 5830 5831 5832 5833 5835 5836 5838 5839 5841 5842 5843 5844 5845 5847 5848 5848 5850 5851 5851 5852 5853 5853 5854 5855 5855 5856 5856 5857 5857 5858 5858 5859 5859 5860
5815 5816 5818 5819 5820 5822 5823 5825 5826 5827 5828 5830 5831 5832 5834 5835 5837 5839 5840 5841 5842 5843 5845 5846 5847 5848 5849 5850 5850 5851 5852 5852 5853 5854 5855 5855 5856 5856 5857 5857 5858 5858 5859
5811 5813 5814 5816 5817 5819 5820 5822 5823 5824 5826 5827 5828 5830 5831 5833 5834 5836 5837 5839 5840 5841 5842 5843 5845 5846 5846 5847 5848 5849 5850 5851 5851 5852 5853 5854 5854 5855 5856 5856 5857 5857 5858
5807 5809 5811 5812 5814 5815 5817 5818 5820 5821 5822 5824 5825 5827 5828 5830 5832 5833 5835 5836 5837 5838 5840 5841 5842 5843 5844 5845 5846 5847 5848 5849 5850 5851 5851 5852 5853 5853 5854 5855 5855 5856 5856
5803 5805 5807 5808 5810 5811 5813 5815 5816 5818 5819 5820 5822 5824 5825 5827 5829 5830 5832 5833 5835 5836 5837 5839 5840 5841 5842 5843 5844 5845 5846 5847 5848 5849 5850 5851 5851 5852 5852 5853 5854 5854 5855
5799 5800 5802 5804 5805 5807 5809 5811 5813 5814 5816 5817 5819 5820 5822 5824 5826 5827 5829 5830 5832 5833 5835 5836 5837 5838 5840 5841 5841 5842 5843 5844 5845 5846 5847 5848 5849 5850 5850 5851 5852 5852 5853
5794 5796 5797 5799 5801 5803 5804 5806 5808 5810 5812 5813 5815 5816 5818 5820 5822 5824 5826 5827 5829 5830 5832 5833 5834 5836 5837 5838 5839 5840 5841 5842 5843 5843 5845 5846 5847 5847 5848 5849 5849 5850 5851
5788 5790 5792 5794 5796 5798 5800 5802 5803 5805 5807 5809 5811 5812 5814 5816 5818 5820 5822 5824 5825 5827 5828 5830 5831 5832 5834 5835 5836 5837 5838 5839 5840 5841 5842 5843 5844 5845 5845 5846 5847 5847 5848
5782 5784 5786 5788 5790 5793 5794 5796 5798 5800 5802 5804 5806 5808 5810 5812 5814 5816 5818 5820 5821 5823 5825 5826 5827 5829 5830 5831 5833 5834 5835 5836 5837 5838 5839 5840 5841 5842 5842 5843 5844 5845 5845
5776 5778 5780 5782 5784 5787 5789 5791 5793 5795 5797 5799 5801 5804 5806 5808 5810 5812 5814 5816 5817 5819 5821 5822 5824 5825 5826 5828 5829 5830 5831 5832 5833 5834 5835 5837 5837 5838 5839 5840 5841 5841 5842
5769 5772 5774 5776 5778 5780 5783 5785 5787 5790 5792 5794 5797 5799 5801 5803 5805 5807 5809 5811 5813 5815 5816 5818 5819 5821 5822 5824 5825 5826 5828 5829 5830 5831 5832 5833 5834 5835 5836 5837 5837 5838 5839
5762 5764 5766 5769 5771 5773 5776 5778 5781 5784 5786 5789 5791 5793 5796 5798 5800 5803 5805 5806 5808 5810 5811 5813 5815 5816 5818 5819 5821 5822 5824 5825 5826 5827 5828 5829 5830 5831 5832 5833 5833 5834 5835
5755 5757 5758 5761 5763 5766 5769 5772 5774 5777 5780 5783 5785 5788 5790 5793 5795 5797 5799 5801 5803 5805 5807 5808 5810 5811 5813 5815 5816 5818 5819 5821 5822 5823 5824 5825 5826 5827 5828 5828 5829 5830 5830
5747 5749 5751 5753 5756 5759 5762 5765 5767 5770 5773 5776 5779 5782 5785 5787 5789 5791 5794 5796 5798 5800 5802 5803 5805 5807 5808 5810 5812 5813 5815 5816 5818 5819 5820 5821 5822 5822 5823 5824 5825 5825 5826
5739 5741 5743 5746 5749 5751 5754 5757 5760 5763 5766 5769 5772 5775 5778 5781 5783 5786 5788 5790 5793 5795 5797 5798 5800 5802 5803 5805 5807 5808 5810 5811 5812 5813 5814 5816 5817 5818 5818 5819 5820 5820 5821
5731 5733 5735 5738 5741 5744 5747 5750 5753 5755 5759 5762 5765 5768 5772 5775 5777 5780 5782 5784 5787 5789 5791 5792 5794 5796 5798 5799 5801 5802 5803 5805 5806 5807 5809 5810 5811 5812 5813 5814 5814 5815 5815
5722 5724 5727 5729 5732 5736 5739 5742 5745 5748 5751 5755 5758 5761 5764 5768 5770 5773 5776 5778 5780 5783 5785 5786 5788 5789 5791 5793 5794 5796 5797 5799 5800 5802 5803 5804 5805 5806 5807 5808 5808 5809 5809
5714 5716 5718 5721 5724 5727 5730 5733 5737 5740 5743 5747 5750 5754 5757 5760 5763 5766 5769 5771 5774 5776 5778 5780 5782 5783 5785 5786 5788 5790 5791 5792 5794 5795 5797 5798 5799 5800 5801 5802 5802 5803 5803
5704 5707 5710 5712 5715 5718 5722 5725 5728 5732 5735 5739 5742 5746 5749 5752 5755 5758 5761 5763 5766 5768 5771 5773 5775 5776 5778 5779 5781 5783 5784 5786 5787 5788 5790 5791 5792 5793 5794 5795 5796 5796 5797
5695 5698 5701 5704 5707 5709 5713 5716 5719 5723 5726 5730 5734 5737 5741 5744 5747 5750 5753 5755 5758 5760 5762 5764 5766 5768 5770 5772 5773 5775 5777 5778 5780 5781 5782 5784 5785 5786 5787 5788 5788 5789 5789
5686 5688 5691 5694 5698 5701 5703 5707 5710 5714 5718 5721 5725 5728 5732 5735 5738 5741 5744 5747 5749 5752 5754 5756 5758 5760 5762 5764 5766 5767 5769 5770 5772 5773 5775 5776 5777 5778 5779 5780 5781 5781 5782
5676 5679 5682 5685 5688 5691 5693 5697 5701 5705 5708 5712 5716 5719 5722 5726 5729 5732 5735 5738 5740 5743 5745 5748 5750 5752 5754 5755 5757 5759 5761 5763 5764 5765 5766 5767 5768 5770 5771 5771 5772 5773 5774
5666 5669 5672 5675 5678 5680 5683 5687 5691 5695 5698 5702 5706 5709 5713 5716 5719 5722 5725 5728 5731 5733 5736 5738 5741 5743 5745 5747 5748 5750 5752 5754 5755 5757 5758 5758 5760 5761 5762 5763 5763 5764 5765
5657 5659 5663 5665 5668 5671 5673 5677 5681 5685 5688 5692 5696 5699 5702 5706 5709 5712 5715 5718 5721 5723 5726 5729 5731 5733 5735 5737 5739 5741 5743 5744 5746 5748 5749 5749 5750 5751 5752 5753 5754 5755 5756
5647 5650 5653 5656 5659 5661 5664 5667 5671 5674 5678 5681 5685 5688 5692 5695 5698 5701 5704 5707 5710 5713 5716 5718 5721 5723 5726 5728 5729 5731 5732 5734 5736 5738 5739 5740 5741 5742 5742 5743 5744 5745 5746
5637 5640 5643 5646 5649 5651 5654 5657 5660 5664 5667 5670 5674 5677 5681 5684 5687 5690 5693 5696 5699 5702 5705 5708 5710 5713 5715 5717 5719 5721 5722 5724 5726 5727 5729 5730 5731 5732 5732 5733 5734 5735 5736